Wind_Speed
11 12 12 12 13 13 13 13 13 13 13 13 12 11 11 11 11 10 10 10 10 10 9 9 9 8 8 8 8 9 9 9 9 9 9 10 10 10 10 10 11 11 12 12
12 12 12 13 13 13 14 14 13 13 14 14 13 13 12 12 12 12 12 11 11 11 10 10 10 9 9 9 9 9 10 10 10 10 10 10 10 10 11 11 11 12 12 12
12 12 13 13 13 14 15 14 14 14 14 14 14 14 13 13 13 13 13 12 12 12 11 12 11 10 10 10 10 10 11 11 11 11 11 11 11 11 12 12 13 13 13 13
13 13 13 13 14 15 15 14 15 15 15 15 15 15 13 13 14 15 14 13 13 13 12 12 12 12 11 11 11 11 11 11 12 12 12 12 12 12 12 13 13 14 14 15
13 13 13 13 14 14 15 15 16 16 16 16 16 17 14 14 15 15 15 14 14 14 14 13 13 13 12 12 12 12 12 12 12 12 12 13 13 13 13 14 14 15 15 16
14 14 14 14 14 15 15 15 16 16 17 17 16 17 16 15 15 15 15 15 15 15 14 14 14 14 13 13 13 13 13 12 13 13 13 13 14 14 14 15 15 16 16 16
15 14 15 15 15 15 15 15 16 17 17 17 16 16 16 15 15 16 15 16 16 16 15 15 14 15 14 14 14 14 14 14 14 13 14 14 14 15 15 15 16 16 17 18
16 15 16 16 16 16 16 16 17 18 18 17 17 17 16 16 16 16 16 16 15 15 15 15 15 15 15 15 15 15 15 15 15 15 15 15 15 16 16 16 16 17 18 18
16 16 16 17 17 17 17 17 17 18 19 18 17 17 16 16 16 17 16 16 16 15 16 16 16 16 17 16 16 16 16 16 16 16 16 17 16 17 17 17 17 18 19 19
17 16 16 17 18 18 18 18 18 18 19 19 18 17 16 16 16 17 17 17 16 16 16 17 17 17 17 16 17 17 17 17 18 18 18 18 18 18 19 18 19 19 19 20
17 17 16 17 18 18 19 19 19 20 20 19 19 18 17 17 17 17 17 18 18 18 18 18 18 18 18 19 19 19 19 19 19 19 19 19 19 20 20 20 20 21 21 21
18 18 17 18 18 18 19 20 19 20 20 21 21 20 18 18 18 18 17 18 19 19 18 19 19 19 20 20 20 20 20 19 20 20 20 20 20 21 21 22 22 22 22 22
19 18 18 18 18 19 19 20 20 20 21 21 21 20 19 19 19 19 19 19 20 20 21 21 21 21 21 21 21 22 22 21 20 20 21 21 21 22 22 23 23 23 24 24
20 19 19 18 18 19 19 20 20 21 21 21 21 21 20 20 20 21 21 21 21 21 22 21 21 22 22 22 23 23 23 23 22 22 22 22 23 23 23 24 24 24 24 25
21 20 19 19 19 19 19 20 21 21 21 21 21 21 20 21 22 22 22 22 22 22 22 22 22 22 23 23 24 24 24 24 24 24 24 24 24 25 24 25 25 25 26 26
21 21 20 20 20 20 20 20 20 20 20 20 21 21 21 22 22 23 23 23 24 24 24 24 23 23 23 23 24 24 24 25 25 25 25 25 25 25 25 25 26 26 27 27
21 21 21 21 21 22 21 19 20 20 20 20 20 20 21 21 22 23 24 24 24 24 24 24 23 24 24 24 24 25 25 25 25 25 25 26 26 26 26 26 27 28 28 29
21 21 22 21 21 23 21 20 21 21 21 21 21 21 21 21 22 23 23 24 24 25 25 25 25 25 25 25 25 25 25 26 26 26 27 27 27 27 27 27 28 29 30 31
22 22 23 23 23 23 22 21 22 22 22 21 21 21 21 22 22 23 23 23 24 25 25 25 25 25 25 25 26 26 26 26 26 26 27 27 27 28 28 29 29 30 31 31
23 23 24 24 24 23 21 21 23 23 23 22 23 23 22 22 23 23 23 23 24 25 25 26 27 26 26 27 27 27 27 27 27 27 27 27 28 29 29 30 30 30 30 30
23 24 25 25 25 23 22 22 23 24 23 23 24 24 24 24 24 24 24 24 25 26 27 27 28 27 28 28 28 28 28 28 28 28 28 28 29 29 30 30 31 31 30 30
23 25 25 25 25 23 22 22 23 23 24 25 25 25 24 24 25 25 25 25 25 26 27 28 28 28 28 28 29 29 29 29 29 29 29 29 29 29 29 30 31 31 31 31
24 25 25 25 25 25 25 25 24 24 24 25 25 25 25 25 25 25 26 26 26 26 27 28 29 29 29 29 29 29 29 29 30 30 30 30 30 30 30 30 30 31 31 31
24 25 25 25 25 25 24 24 24 24 24 24 24 25 25 25 26 26 26 26 26 27 27 28 29 30 30 30 30 30 30 31 31 30 30 30 30 31 31 31 32 32 32 32
25 25 25 25 25 24 23 24 24 25 26 26 26 26 26 26 26 26 27 28 28 28 28 29 29 30 30 31 31 31 31 32 31 30 30 31 31 32 32 32 32 32 32 32
25 25 26 25 24 24 24 24 24 25 26 27 27 27 28 28 28 28 29 29 30 30 30 31 31 31 31 32 32 31 31 32 31 31 31 32 32 33 33 33 33 32 32 32
Wind_Direction
246 248 249 250 252 251 250 253 252 250 252 254 255 254 255 260 261 261 264 267 270 271 273 276 276 272 274 278 283 285 288 292 293 291 289 290 290 292 293 295 296 294 292 290
249 250 253 255 257 255 252 252 253 251 252 255 254 255 256 261 264 264 263 262 265 267 270 273 273 273 278 282 284 284 287 290 291 290 288 287 288 289 290 290 291 294 295 295
251 254 256 257 258 256 257 253 253 254 254 256 257 256 257 261 264 264 262 262 262 264 268 272 270 270 275 280 282 283 285 287 289 288 286 285 288 290 289 289 288 288 289 292
251 253 255 258 260 260 259 255 255 255 256 257 259 260 256 259 262 263 262 262 263 265 268 270 270 269 271 275 279 282 285 287 287 288 286 285 285 288 288 288 287 287 288 289
255 257 259 260 259 259 257 256 256 257 257 258 259 263 260 257 260 263 264 265 265 265 265 267 269 269 270 271 274 280 284 287 287 285 285 286 286 288 288 287 287 288 289 290
257 258 260 259 258 259 257 257 256 257 258 258 259 263 264 263 263 264 264 265 266 266 267 268 268 267 268 269 272 276 279 282 285 285 286 287 288 289 290 289 288 291 291 291
258 260 261 260 258 260 260 259 259 259 258 260 263 264 268 267 266 264 262 261 264 267 269 268 266 266 267 269 270 272 275 277 281 285 287 288 288 290 291 290 289 291 293 293
259 260 261 261 260 261 261 260 261 262 262 261 262 265 267 270 268 265 263 262 263 265 266 267 266 265 267 269 270 271 272 275 278 282 284 286 289 290 291 291 291 291 293 294
263 262 262 261 260 260 259 259 261 262 264 264 265 267 267 269 267 266 265 263 262 262 265 267 267 264 267 269 271 273 274 274 276 279 281 283 286 291 291 290 290 292 293 293
265 263 261 261 261 260 259 260 260 261 262 264 266 269 271 269 269 267 263 261 263 261 264 266 266 263 266 268 270 273 275 275 275 277 280 283 284 288 290 288 288 289 291 291
265 266 262 260 261 261 259 259 260 263 263 265 267 268 270 270 270 268 264 262 263 264 265 268 269 267 266 269 271 273 274 275 275 275 278 281 284 286 288 288 287 288 290 291
268 267 265 263 262 261 259 260 261 261 263 265 268 268 268 268 269 267 266 265 266 268 268 270 272 271 271 271 272 274 273 275 276 276 278 280 283 285 285 285 285 286 289 290
266 269 268 263 262 262 260 260 259 261 263 265 267 270 268 267 266 267 266 266 268 270 270 271 271 272 273 273 273 274 275 276 276 278 279 281 283 285 286 286 285 284 286 287
264 266 268 268 267 265 262 261 260 262 265 267 269 270 269 267 266 267 267 267 267 270 272 272 273 273 273 273 273 273 274 275 276 278 281 282 284 286 286 286 286 285 285 286
265 266 268 267 265 263 262 262 260 262 265 269 270 270 269 267 266 266 266 266 266 268 270 272 272 272 270 270 271 273 272 273 275 277 280 282 284 284 285 286 286 285 286 286
266 267 267 266 265 263 262 263 263 263 264 267 270 271 270 270 269 269 267 267 268 270 271 272 271 271 269 269 271 272 272 273 274 276 279 282 284 283 284 285 286 286 286 287
267 266 266 266 264 264 263 265 264 264 264 267 271 272 271 271 272 272 270 269 270 270 272 273 273 271 270 269 271 272 272 274 276 277 279 282 283 283 283 284 285 286 287 287
267 265 265 264 263 263 267 266 266 268 268 268 271 272 273 274 273 274 273 272 270 271 273 274 273 273 272 271 273 274 273 275 277 279 280 282 283 283 284 286 287 288 288 288
266 266 266 265 265 268 268 268 268 269 269 269 271 272 273 272 274 274 274 273 272 272 273 274 273 274 275 275 276 276 276 277 279 281 282 282 283 283 284 286 287 288 289 290
265 265 265 267 268 270 272 269 268 268 269 270 270 272 273 272 274 274 274 274 274 274 274 274 274 275 276 276 276 277 276 277 280 282 283 283 283 284 285 287 289 289 290 291
266 265 266 267 268 271 272 269 268 269 272 272 272 273 273 274 275 276 275 275 276 277 277 277 278 278 277 277 277 277 278 278 280 281 283 285 286 285 286 288 289 290 290 290
266 267 267 267 269 271 272 269 269 271 272 273 274 274 274 274 275 276 276 275 276 278 280 280 280 280 279 278 278 278 279 280 280 281 283 285 287 287 287 288 289 290 291 290
267 268 269 269 271 272 272 272 273 273 273 274 275 276 276 275 276 276 276 277 278 279 281 282 281 280 279 279 279 279 279 280 281 282 284 284 285 287 287 289 289 290 290 290
267 267 269 270 270 271 272 272 272 273 273 273 275 277 277 276 274 274 276 277 279 280 281 283 282 281 281 280 280 280 279 280 281 282 283 284 284 286 289 290 290 291 290 290
266 267 269 271 271 271 271 272 273 271 272 273 273 274 274 276 276 276 277 278 279 280 281 282 282 282 282 281 281 281 280 279 279 281 282 283 285 287 288 289 290 290 290 290
265 267 270 271 271 270 270 270 272 273 272 273 273 274 275 277 277 279 279 280 281 281 281 281 282 283 283 282 281 280 280 279 279 280 282 283 285 286 288 289 289 289 289 289
Height
5835 5837 5837 5838 5840 5841 5841 5843 5844 5845 5845 5846 5847 5847 5848 5848 5848 5849 5848 5848 5848 5848 5847 5847 5847 5847 5847 5846 5846 5845 5845 5844 5844 5843 5843 5842 5842 5841 5840 5839 5838 5837 5837 5836
5833 5834 5835 5836 5837 5838 5839 5840 5841 5842 5842 5843 5844 5845 5845 5845 5846 5846 5846 5846 5845 5845 5845 5845 5844 5844 5844 5844 5844 5843 5842 5842 5841 5841 5840 5840 5839 5838 5837 5837 5836 5835 5834 5833
5830 5832 5832 5833 5834 5835 5836 5837 5838 5839 5839 5840 5841 5842 5842 5843 5842 5842 5842 5842 5842 5842 5842 5842 5842 5842 5842 5842 5841 5841 5840 5839 5839 5838 5837 5837 5836 5835 5835 5834 5833 5832 5831 5830
5828 5829 5830 5831 5831 5832 5833 5834 5834 5835 5836 5836 5838 5838 5840 5840 5839 5839 5839 5839 5839 5839 5839 5839 5839 5839 5839 5839 5838 5838 5837 5836 5836 5835 5834 5834 5833 5832 5831 5831 5830 5829 5828 5827
5825 5826 5827 5828 5829 5829 5830 5830 5831 5831 5832 5833 5834 5834 5836 5836 5835 5836 5836 5836 5836 5836 5836 5836 5835 5835 5835 5835 5835 5834 5834 5833 5832 5832 5831 5831 5830 5829 5828 5827 5826 5825 5824 5823
5822 5823 5823 5824 5825 5825 5826 5827 5827 5828 5828 5829 5830 5830 5831 5832 5832 5832 5832 5832 5832 5832 5832 5832 5832 5832 5832 5832 5832 5831 5831 5830 5829 5829 5828 5827 5826 5825 5824 5823 5822 5821 5820 5819
5819 5819 5820 5820 5821 5822 5823 5824 5824 5824 5824 5826 5826 5826 5827 5828 5828 5828 5828 5828 5828 5828 5828 5828 5828 5828 5828 5828 5828 5828 5827 5827 5826 5825 5824 5823 5822 5821 5820 5819 5818 5817 5816 5815
5815 5816 5816 5816 5817 5818 5818 5819 5820 5820 5820 5821 5822 5822 5824 5823 5823 5823 5824 5824 5824 5824 5824 5824 5824 5824 5824 5824 5824 5824 5823 5823 5822 5821 5820 5819 5819 5818 5817 5815 5814 5813 5812 5810
5811 5812 5812 5812 5813 5814 5814 5815 5816 5816 5816 5816 5817 5818 5819 5819 5819 5819 5820 5820 5820 5820 5820 5820 5820 5820 5820 5820 5820 5820 5819 5818 5818 5817 5816 5815 5814 5813 5812 5811 5810 5809 5807 5806
5806 5807 5808 5808 5809 5809 5810 5810 5811 5811 5811 5811 5813 5814 5815 5815 5815 5815 5815 5815 5816 5816 5816 5816 5815 5815 5815 5815 5815 5815 5814 5814 5813 5812 5811 5810 5810 5809 5807 5806 5805 5804 5802 5801
5801 5802 5803 5804 5804 5805 5805 5806 5806 5806 5807 5807 5808 5812 5810 5810 5810 5810 5810 5810 5811 5811 5811 5811 5811 5811 5810 5810 5810 5810 5809 5809 5808 5807 5807 5806 5805 5803 5802 5801 5800 5798 5797 5795
5796 5797 5797 5799 5799 5799 5800 5801 5801 5802 5802 5802 5802 5807 5805 5805 5805 5805 5805 5805 5806 5806 5805 5805 5805 5805 5805 5805 5805 5804 5804 5803 5803 5802 5801 5800 5799 5798 5797 5795 5794 5792 5791 5789
5791 5792 5792 5793 5796 5795 5794 5795 5796 5797 5797 5797 5797 5801 5800 5800 5800 5800 5800 5800 5800 5800 5800 5799 5799 5799 5799 5799 5799 5798 5798 5797 5797 5796 5795 5795 5793 5792 5791 5789 5788 5786 5785 5783
5786 5786 5788 5788 5788 5788 5789 5789 5790 5790 5791 5791 5792 5794 5794 5794 5794 5794 5794 5794 5794 5794 5793 5793 5793 5793 5793 5793 5793 5792 5792 5791 5790 5790 5789 5788 5787 5786 5784 5783 5781 5780 5778 5777
5780 5781 5782 5782 5782 5782 5783 5784 5784 5785 5786 5786 5787 5787 5788 5788 5788 5788 5788 5788 5788 5788 5788 5787 5787 5787 5786 5786 5786 5786 5785 5785 5784 5783 5782 5781 5780 5779 5777 5776 5774 5773 5771 5769
5775 5775 5776 5777 5776 5776 5777 5778 5779 5779 5780 5780 5780 5781 5782 5781 5781 5781 5781 5781 5781 5781 5781 5781 5781 5780 5779 5779 5779 5779 5778 5778 5777 5776 5775 5774 5773 5771 5770 5769 5767 5765 5764 5762
5769 5770 5770 5771 5771 5771 5772 5774 5774 5774 5774 5775 5775 5776 5775 5775 5775 5774 5774 5774 5774 5774 5774 5774 5774 5773 5773 5772 5772 5772 5771 5771 5770 5769 5768 5767 5766 5764 5763 5761 5760 5758 5756 5754
5764 5764 5764 5765 5766 5765 5769 5768 5768 5768 5769 5769 5769 5769 5769 5768 5768 5767 5767 5767 5767 5767 5767 5767 5767 5766 5766 5765 5765 5764 5764 5763 5762 5762 5761 5760 5758 5757 5755 5754 5752 5750 5748 5746
5758 5758 5758 5758 5758 5759 5762 5762 5762 5762 5763 5763 5763 5762 5762 5762 5761 5761 5761 5761 5760 5760 5760 5760 5759 5759 5758 5758 5757 5757 5756 5755 5755 5754 5753 5751 5750 5749 5747 5746 5744 5742 5740 5737
5752 5752 5753 5752 5752 5753 5757 5756 5755 5756 5756 5757 5756 5756 5756 5755 5755 5756 5754 5754 5753 5753 5752 5752 5752 5751 5751 5750 5750 5749 5748 5748 5747 5746 5745 5743 5742 5741 5739 5737 5735 5733 5731 5728
5746 5746 5746 5746 5745 5747 5749 5749 5749 5751 5752 5750 5749 5749 5749 5749 5749 5748 5748 5747 5746 5746 5745 5744 5743 5743 5743 5742 5741 5741 5740 5739 5739 5738 5736 5735 5734 5732 5731 5729 5727 5725 5722 5720
5740 5739 5740 5740 5740 5743 5743 5742 5743 5743 5743 5742 5742 5742 5742 5742 5741 5741 5740 5740 5739 5738 5737 5736 5735 5735 5734 5734 5733 5732 5732 5731 5730 5729 5728 5727 5725 5724 5722 5720 5718 5715 5713 5711
5733 5734 5733 5734 5736 5736 5736 5736 5736 5735 5736 5735 5735 5735 5735 5734 5734 5734 5733 5732 5731 5730 5729 5728 5727 5726 5726 5725 5724 5723 5723 5722 5721 5720 5719 5718 5717 5715 5713 5711 5709 5706 5704 5701
5726 5726 5726 5727 5728 5729 5729 5728 5728 5728 5728 5728 5728 5728 5727 5727 5726 5726 5725 5724 5723 5722 5721 5720 5719 5718 5717 5716 5715 5715 5714 5713 5712 5711 5710 5709 5708 5706 5704 5702 5700 5697 5695 5692
5719 5719 5719 5720 5721 5721 5722 5721 5721 5721 5721 5721 5721 5720 5720 5719 5718 5718 5717 5716 5715 5714 5713 5711 5710 5709 5708 5707 5706 5705 5704 5703 5702 5702 5701 5699 5698 5697 5695 5693 5690 5688 5685 5683
5712 5712 5713 5713 5714 5714 5714 5714 5714 5714 5713 5713 5713 5713 5712 5711 5710 5709 5708 5707 5706 5705 5704 5703 5701 5700 5699 5698 5697 5696 5695 5694 5693 5692 5691 5690 5689 5687 5685 5683 5680 5678 5675 5673